sat.trackr.live / text

‹ back to catalog

LUCAS (JDRS-1)

NORAD 47202 · 2020-089A

PAYLOAD ACTIVE UNKNOWN

§ Identity

Operator
Country
JPN
Launch date
2020-11-29
Launch site
TANSC
Launch vehicle
Mass (kg)
RCS (m²)

Purposes: comms

External: N2YO · Heavens-Above · Gunter

§ Orbital elements

Epoch: 2026-09-20T01:57:22.127040Z

Period
1,436.10 min
Inclination
0.0362°
Eccentricity
0.0002150
Mean motion
1.00271893 rev/d
Perigee alt
35,777.5 km
Apogee alt
35,795.6 km
Semi-major
42,164.7 km
B*
0.0000e+0
RAAN
284.4548°
Arg perigee
265.9216°
Mean anomaly
288.7564°
Rev number
2,137

§ Raw data

LUCAS (JDRS-1)1 47202U 20089A   26263.08150610 -.00000240  00000+0  00000+0 0  99992 47202   0.0362 284.4548 0002150 265.9216 288.7564  1.00271893 21376

JSON: /api/v1/satellites/47202 · /tle

For live sub-satellite position, see the globe view (requires WebGL).

§ Visibility from observer

Set your observer location to see the next 7 days of passes ≥ 10°. The values pass through the URL so the page stays shareable.

No JS? Fill the form by hand. The geolocation button needs JavaScript.